Погода в Александрове

Россия / Владимирская область     56°23′51″N   38°43′39″E
темп.,
°C
ветер,
м/с
пор.,
м/с
влажн.,
%
обл.,
%
осадки,
мм/ч
давл.,
гПа
погр.,
м
21 апреля, ср
ср2100:00+3в51297100 1.7 1014768
03:00+3в51397100 3.7 1010760
06:00+1всв51297100 2.7 1005526
09:00+1ссз3499100 5.7 1002128
12:00+3ююз4897100 0.6 1004531
15:00+3ююз4790100 0.6 1006913
18:00+3ююз3791100 0.1 1008566
21:00+3ююз3893100 0.1 1010344
22 апреля, чт
чт2200:00+3ю3795100 0.0 1011250
03:00+3ю3896100 0.0 1012248
06:00+3ю499685 0.1 1012355
09:00+6ююз5984100 0.1 1013633
12:00+9ююз5977100 0.1 10141075
15:00+10ююз5872100 0.2 10141260
18:00+10ю597637 0.1 1015847
21:00+7ююв4119113 0.1 1015282
23 апреля, пт
пт2300:00+7ююв5139381 0.0 1015380
03:00+6ююв4119728 0.0 1014305
06:00+5ююв4129722 0.0 1014322
09:00+11ю6137666 0.0 1014726
12:00+14ю7135972 0.1 10131979
15:00+15ю7125599 1.0 10131982
18:00+12ю61163100 0.7 1013937
21:00+9ю378326 1.3 1012183
24 апреля, сб
сб2400:00+9ююв5148179 0.1 1010699
03:00+7юв5128683 0.1 1008491
06:00+7ю2991100 0.3 1006734
09:00+1зсз4897100 4.1 1007283
12:00+3з3899100 3.5 1008399
15:00+4з3696100 3.8 1008468
18:00+6з2581100 0.3 1007682
21:00+2зюз278999 0.6 1007142
25 апреля, вс
вс2500:000з39915 0.0 1007184
03:00−1зюз310915 0.0 1007225
06:000зюз410925 0.0 1007395
09:00+4з577455 0.0 10071066
12:00+4з587199 0.3 10081426
15:00+5з586581 0.5 10081508
18:00+5з476910 0.1 10091186
21:00+1юз398866 0.1 1010227